This is the latest recevied weather packets stored in our database for station/object KP4CRN. If no packets are shown the sender has not sent any weather packets the latest 10 day(s).
| Time | Temp. | Humidity | Pressure | Rain* | Wind** | Luminosity | Snow |
|---|---|---|---|---|---|---|---|
| 1778092425 | 32.78° C | 57% | 1016.2 hPa | 0 mm | - | 665 W/m² | - |
| 1778092123 | 33.33° C | 56% | 1016.2 hPa | 0 mm | - | 673 W/m² | - |
| 1778091819 | 33.33° C | 55% | 1016.2 hPa | 0 mm | - | 687 W/m² | - |
| 1778091517 | 33.89° C | 56% | 1016.3 hPa | 0 mm | - | 700 W/m² | - |
| 1778091214 | 33.33° C | 57% | 1016.4 hPa | 0 mm | - | 634 W/m² | - |
| 1778090906 | 33.33° C | 58% | 1016.3 hPa | 0 mm | - | 72 W/m² | - |
| 1778090602 | 32.78° C | 58% | 1016.4 hPa | 0 mm | - | 69 W/m² | - |
| 1778090299 | 33.33° C | 57% | 1016.5 hPa | 0 mm | - | 88 W/m² | - |
| 1778089995 | 32.78° C | 58% | 1016.6 hPa | 0 mm | - | 381 W/m² | - |
| 1778089693 | 33.33° C | 59% | 1016.8 hPa | 0 mm | - | 743 W/m² | - |
| 1778089390 | 33.33° C | 56% | 1016.9 hPa | 0 mm | - | 667 W/m² | - |
| 1778089087 | 33.33° C | 57% | 1017 hPa | 0 mm | - | 73 W/m² | - |
| 1778088784 | 32.78° C | 58% | 1017 hPa | 0 mm | - | 73 W/m² | - |
| 1778088481 | 33.33° C | 57% | 1017.1 hPa | 0 mm | - | 72 W/m² | - |
| 1778088177 | 33.33° C | 57% | 1017.4 hPa | 0 mm | - | 197 W/m² | - |
| 1778087875 | 32.78° C | 58% | 1017.4 hPa | 0 mm | - | 75 W/m² | - |
| 1778087572 | 32.78° C | 59% | 1017.4 hPa | 0 mm | - | 79 W/m² | - |
| 1778087270 | 33.33° C | 58% | 1017.4 hPa | 0 mm | - | 78 W/m² | - |
| 1778086966 | 32.78° C | 58% | 1017.7 hPa | 0 mm | - | 80 W/m² | - |
| 1778086665 | 32.78° C | 58% | 1017.7 hPa | 0 mm | - | 77 W/m² | - |
| 1778086362 | 33.33° C | 56% | 1017.7 hPa | 0 mm | - | 655 W/m² | - |
| 1778086058 | 32.78° C | 58% | 1017.8 hPa | 0 mm | - | 828 W/m² | - |
| 1778085755 | 33.33° C | 57% | 1017.8 hPa | 0 mm | - | 855 W/m² | - |
| 1778085452 | 33.33° C | 57% | 1017.8 hPa | 0 mm | - | 830 W/m² | - |
| 1778085147 | 33.33° C | 58% | 1018.2 hPa | 0 mm | - | 709 W/m² | - |
* Rain latest hour (hover to see other rain measurements)
** Current wind speed in m/s (hover to see current wind gust speed)